Hourly Weather Muna

Today, 19 September, Sunday

Time Temperature Precipitation Wind Pressure Humidity
00:00 +26°C° 0 mm 1 mps 757 mmHg 81%
01:00 +26°C° 0 mm 1 mps 757 mmHg 86%
02:00 +25°C° 0 mm 1 mps 756 mmHg 91%
03:00 +25°C° 0 mm 1 mps 756 mmHg 96%
04:00 +25°C° 0 mm 1 mps 756 mmHg 96%
05:00 +24°C° 0 mm 1 mps 757 mmHg 97%
06:00 +24°C° 0 mm 1 mps 757 mmHg 98%
07:00 +27°C° 0 mm 1 mps 757 mmHg 85%
08:00 +30°C° 0 mm 2 mps 757 mmHg 72%
09:00 +34°C° 0 mm 2 mps 758 mmHg 59%
10:00 +36°C° 0 mm 2 mps 757 mmHg 51%
11:00 +37°C° 0 mm 2 mps 756 mmHg 43%
12:00 +39°C° 0 mm 2 mps 756 mmHg 35%
13:00 +39°C° 0 mm 2 mps 755 mmHg 34%
14:00 +40°C° 0 mm 2 mps 754 mmHg 33%
15:00 +40°C° 0 mm 2 mps 753 mmHg 32%
16:00 +37°C° 0 mm 2 mps 754 mmHg 42%
17:00 +35°C° 0 mm 2 mps 754 mmHg 51%
18:00 +32°C° 0 mm 2 mps 754 mmHg 61%
19:00 +31°C° 0 mm 2 mps 755 mmHg 65%
20:00 +30°C° 0 mm 2 mps 756 mmHg 70%
21:00 +29°C° 0 mm 1 mps 756 mmHg 74%
22:00 +28°C° 0 mm 1 mps 756 mmHg 76%
23:00 +27°C° 0 mm 1 mps 756 mmHg 77%

Tomorrow, 20 September, Monday

Time Temperature Precipitation Wind Pressure Humidity
00:00 +27°C° 0 mm 1 mps 756 mmHg 78%
01:00 +26°C° 0 mm 1 mps 756 mmHg 83%
02:00 +25°C° 0 mm 1 mps 756 mmHg 89%
03:00 +24°C° 0 mm 1 mps 756 mmHg 94%
04:00 +24°C° 0 mm 1 mps 756 mmHg 95%
05:00 +24°C° 0 mm 1 mps 756 mmHg 97%
06:00 +24°C° 0 mm 1 mps 757 mmHg 99%
07:00 +27°C° 0 mm 1 mps 757 mmHg 86%
08:00 +30°C° 0 mm 2 mps 757 mmHg 73%
09:00 +32°C° 0 mm 2 mps 757 mmHg 60%
10:00 +35°C° 0 mm 2 mps 757 mmHg 52%
11:00 +37°C° 0 mm 2 mps 756 mmHg 44%
12:00 +39°C° 0 mm 2 mps 756 mmHg 35%
13:00 +40°C° 0 mm 2 mps 755 mmHg 32%
14:00 +41°C° 0 mm 2 mps 754 mmHg 29%
15:00 +41°C° 0 mm 2 mps 753 mmHg 27%
16:00 +39°C° 0 mm 2 mps 753 mmHg 36%
17:00 +36°C° 0 mm 2 mps 754 mmHg 45%
18:00 +34°C° 0 mm 3 mps 754 mmHg 54%
19:00 +32°C° 0 mm 2 mps 755 mmHg 59%
20:00 +31°C° 0 mm 2 mps 755 mmHg 63%
21:00 +30°C° 0 mm 2 mps 756 mmHg 67%
22:00 +29°C° 0 mm 2 mps 756 mmHg 70%
23:00 +28°C° 0 mm 2 mps 756 mmHg 73%

Day after tomorrow, 21 September, Tuesday

Time Temperature Precipitation Wind Pressure Humidity
00:00 +27°C° 0 mm 1 mps 756 mmHg 77%
01:00 +26°C° 0 mm 1 mps 756 mmHg 82%
02:00 +26°C° 0 mm 1 mps 756 mmHg 87%
03:00 +25°C° 0 mm 1 mps 756 mmHg 92%
04:00 +25°C° 0 mm 1 mps 756 mmHg 94%
05:00 +25°C° 0 mm 1 mps 757 mmHg 97%
06:00 +25°C° 0 mm 1 mps 757 mmHg 99%
07:00 +27°C° 0 mm 1 mps 757 mmHg 86%
08:00 +30°C° 0 mm 2 mps 758 mmHg 74%
09:00 +32°C° 0 mm 2 mps 758 mmHg 62%
10:00 +35°C° 0 mm 2 mps 757 mmHg 53%
11:00 +37°C° 0 mm 2 mps 757 mmHg 44%
12:00 +39°C° 0 mm 2 mps 756 mmHg 36%
13:00 +39°C° 0 mm 2 mps 755 mmHg 34%
14:00 +40°C° 0 mm 2 mps 755 mmHg 33%
15:00 +40°C° 0 mm 2 mps 754 mmHg 31%
16:00 +37°C° 0.7 mm 2 mps 754 mmHg 45%
17:00 +34°C° 0.7 mm 2 mps 755 mmHg 58%
18:00 +30°C° 0.7 mm 2 mps 755 mmHg 71%
19:00 +29°C° 1.1 mm 2 mps 756 mmHg 79%
20:00 +27°C° 1.1 mm 1 mps 757 mmHg 86%
21:00 +26°C° 1.1 mm 1 mps 757 mmHg 94%
22:00 +26°C° 0.3 mm 1 mps 757 mmHg 95%
23:00 +25°C° 0.3 mm 1 mps 757 mmHg 96%

22 September, Wednesday

Time Temperature Precipitation Wind Pressure Humidity
00:00 +25°C° 0.3 mm 1 mps 757 mmHg 97%
01:00 +25°C° 0.1 mm 1 mps 757 mmHg 98%
02:00 +25°C° 0.1 mm 1 mps 757 mmHg 98%
03:00 +24°C° 0.1 mm 1 mps 756 mmHg 98%
04:00 +24°C° 0 mm 1 mps 756 mmHg 98%
05:00 +24°C° 0 mm 1 mps 757 mmHg 98%
06:00 +24°C° 0 mm 1 mps 757 mmHg 98%
07:00 +27°C° 0 mm 1 mps 757 mmHg 87%
08:00 +29°C° 0 mm 1 mps 757 mmHg 76%
09:00 +32°C° 0 mm 1 mps 758 mmHg 64%
10:00 +33°C° 0 mm 1 mps 757 mmHg 56%
11:00 +35°C° 0 mm 1 mps 757 mmHg 47%
12:00 +37°C° 0 mm 1 mps 756 mmHg 38%
13:00 +37°C° 0 mm 2 mps 755 mmHg 43%
14:00 +36°C° 0 mm 2 mps 755 mmHg 47%
15:00 +34°C° 0 mm 2 mps 754 mmHg 51%
16:00 +32°C° 0.3 mm 2 mps 755 mmHg 59%
17:00 +30°C° 0.3 mm 2 mps 755 mmHg 67%
18:00 +28°C° 0.3 mm 2 mps 755 mmHg 75%
19:00 +27°C° 0.6 mm 2 mps 755 mmHg 82%
20:00 +26°C° 0.6 mm 1 mps 756 mmHg 90%
21:00 +25°C° 0.6 mm 1 mps 756 mmHg 98%
22:00 +25°C° 0 mm 1 mps 756 mmHg 98%
23:00 +25°C° 0 mm 1 mps 756 mmHg 98%

23 September, Thursday

Time Temperature Precipitation Wind Pressure Humidity
00:00 +25°C° 0 mm 1 mps 756 mmHg 98%
01:00 +22°C° 0 mm 0 mps 756 mmHg 98%
02:00 +22°C° 0 mm 0 mps 756 mmHg 98%
03:00 +22°C° 0 mm 0 mps 755 mmHg 98%
04:00 +22°C° 0 mm 0 mps 755 mmHg 98%
05:00 +22°C° 0 mm 0 mps 755 mmHg 98%
06:00 +22°C° 0 mm 0 mps 755 mmHg 98%
07:00 +24°C° 0 mm 0 mps 756 mmHg 90%
08:00 +26°C° 0 mm 0 mps 756 mmHg 82%
09:00 +28°C° 0 mm 0 mps 756 mmHg 74%
10:00 +32°C° 0 mm 1 mps 756 mmHg 64%
11:00 +34°C° 0 mm 1 mps 755 mmHg 54%
12:00 +36°C° 0 mm 1 mps 755 mmHg 43%
13:00 +34°C° 0.1 mm 1 mps 754 mmHg 50%
14:00 +34°C° 0.1 mm 2 mps 754 mmHg 57%
15:00 +31°C° 0.1 mm 2 mps 754 mmHg 63%
16:00 +30°C° 0.1 mm 2 mps 754 mmHg 66%
17:00 +30°C° 0.1 mm 2 mps 754 mmHg 69%
18:00 +29°C° 0.1 mm 2 mps 755 mmHg 72%
19:00 +28°C° 0 mm 2 mps 755 mmHg 77%
20:00 +27°C° 0 mm 2 mps 756 mmHg 83%
21:00 +26°C° 0 mm 1 mps 756 mmHg 88%
22:00 +26°C° 0 mm 1 mps 756 mmHg 91%
23:00 +25°C° 0 mm 1 mps 756 mmHg 94%

24 September, Friday

Time Temperature Precipitation Wind Pressure Humidity
00:00 +23°C° 0 mm 0 mps 756 mmHg 98%
01:00 +23°C° 0 mm 0 mps 755 mmHg 98%
02:00 +23°C° 0 mm 0 mps 755 mmHg 98%
03:00 +22°C° 0 mm 0 mps 755 mmHg 98%
04:00 +22°C° 0 mm 0 mps 755 mmHg 98%
05:00 +22°C° 0 mm 0 mps 756 mmHg 98%
06:00 +22°C° 0 mm 0 mps 756 mmHg 98%
07:00 +25°C° 0 mm 0 mps 756 mmHg 88%
08:00 +29°C° 0 mm 1 mps 756 mmHg 77%
09:00 +31°C° 0 mm 1 mps 757 mmHg 66%
10:00 +33°C° 0 mm 1 mps 756 mmHg 57%
11:00 +35°C° 0 mm 1 mps 756 mmHg 48%
12:00 +37°C° 0 mm 1 mps 755 mmHg 38%
13:00 +36°C° 0 mm 2 mps 755 mmHg 44%
14:00 +35°C° 0 mm 2 mps 754 mmHg 49%
15:00 +32°C° 0 mm 2 mps 754 mmHg 54%
16:00 +31°C° 0.3 mm 2 mps 754 mmHg 63%
17:00 +29°C° 0.3 mm 2 mps 755 mmHg 72%
18:00 +27°C° 0.3 mm 2 mps 755 mmHg 81%
19:00 +27°C° 0 mm 2 mps 755 mmHg 85%
20:00 +26°C° 0 mm 1 mps 756 mmHg 90%
21:00 +25°C° 0 mm 1 mps 756 mmHg 95%
22:00 +25°C° 0 mm 1 mps 756 mmHg 96%
23:00 +25°C° 0 mm 1 mps 756 mmHg 97%
Show more

We Need Your Consent

Meteoprog and our Service Providers may store and access personal data such as cookies, device identifiers or other similar technologies on your device and process such data to personalise content and ads, as well as provide social media features and to analyse the traffic.

  • Store and/or access information on your device

    Cookies, device identifiers or other information can be stored or accessed on your device for the purposes indicated above.

  • Personalised ads and content, ad and content measurement, audience insights, and products development

    Ads and content can be personalised based on a profile. More data can be added to better personalise ads and content. Ad and content performance can be measured. Insights about the audience who saw the ads and content can be derived. Such data can be used to develop or improve user’s experience, systems and software.

By clicking ‘I Agree’ you will allow the use of indicated cookies, device identifiers, web beacons or other similar technologies. Your settings can be changed in the browser on your device.

For certain purposes, legitimate interests may be relied on, rather than consent. You can read more about this in our Privacy and Cookie Policy.